Weather History for LHDC - November, 2012

Change the Weather History Date:

Wednesday, November 14, 2012

  Actual Average Record
Temperature  
Mean Temperature 46 °F -  
Max Temperature 54 °F 42 °F - ()
Min Temperature 39 °F 31 °F - ()
Degree Days  
Heating Degree Days 19    
Moisture  
Dew Point 36 °F    
Average Humidity 64    
Maximum Humidity 71    
Minimum Humidity 48    
Precipitation  
Precipitation 0.00 in 0.06 in - ()
Sea Level Pressure  
Sea Level Pressure 30.46 in    
Wind  
Wind Speed 11 mph ()    
Max Wind Speed 16 mph    
Max Gust Speed -    
Visibility 7.4 miles    
Events      
T = Trace of Precipitation, MM = Missing Value Source: Averaged Metar Reports

Daily Weather History Graph

Daily Weather History Graph

Search for Another Location

Airport or City:

Trip Planner

Search our weather history database for the weather conditions in past years. The results will help you decide how hot, cold, wet, or windy it might be!

Date:

Astronomy

Nov. 14, 2012 Rise Set
Actual Time 6:37 AM CET 3:58 PM CET
Civil Twilight 6:03 AM CET 4:31 PM CET
Nautical Twilight 5:26 AM CET 5:08 PM CET
Astronomical Twilight 4:50 AM CET 5:45 PM CET
Moon 7:08 AM CET (11/14) 4:24 PM CET (11/14)
Length of Visible Light 10h 28m
Length of Day
9h 21m
New Moon, 0% of the Moon is Illuminated
Nov 14
New Moon
Nov 20
First Quarter
Nov 28
Full
Dec 6
Last Quarter
Dec 13
New

Hourly Weather History & Observations

Time (CET) Temp. Windchill Dew Point Humidity Pressure Visibility Wind Dir Wind Speed Gust Speed Precip Events Conditions
1:00 AM 40 °F - 31 °F 61% 30.45 in - NNE 13.4 mph - -  
5:15 AM 41.0 °F 33.9 °F 32.0 °F 70% 30.45 in 6.2 mi NNE 12.7 mph - N/A   Overcast
5:45 AM 41.0 °F 34.3 °F 32.0 °F 70% 30.45 in 6.2 mi NNE 11.5 mph - N/A   Scattered Clouds
6:00 AM - - - N/A% - 6.2 mi NNE 12.7 mph - N/A   Mostly Cloudy
6:15 AM 41.0 °F 33.9 °F 32.0 °F 70% 30.45 in 6.2 mi NNE 12.7 mph - N/A   Mostly Cloudy
6:45 AM 41.0 °F 32.8 °F 32.0 °F 70% 30.45 in 6.2 mi NNE 16.1 mph - N/A   Mostly Cloudy
7:00 AM 41 °F - 31 °F 58% 30.47 in 16 mi NNE 15.7 mph - -   Partly Cloudy
7:15 AM 41.0 °F 33.1 °F 32.0 °F 70% 30.45 in 6.2 mi NNE 15.0 mph - N/A   Mostly Cloudy
7:45 AM 41.0 °F 32.8 °F 32.0 °F 70% 30.48 in 6.2 mi NNE 16.1 mph - N/A   Mostly Cloudy
8:15 AM 41.0 °F 33.1 °F 32.0 °F 70% 30.48 in 6.2 mi NNE 15.0 mph - N/A   Mostly Cloudy
8:45 AM 42.8 °F 35.8 °F 32.0 °F 66% 30.48 in - NNE 13.8 mph - N/A   Clear
9:04 AM - - - N/A% - - NNE 12.7 mph - N/A   Clear
9:15 AM 44.6 °F 38.4 °F 33.8 °F 66% 30.48 in - NE 12.7 mph - N/A   Clear
9:45 AM 44.6 °F 37.8 °F 33.8 °F 66% 30.48 in - NE 15.0 mph - N/A   Clear
10:15 AM 46.4 °F 40.4 °F 33.8 °F 62% 30.48 in - NE 13.8 mph - N/A   Clear
10:45 AM 48.2 °F - 35.6 °F 62% 30.48 in - NE 12.7 mph - N/A   Clear
11:15 AM 50.0 °F - 35.6 °F 58% 30.45 in - NNE 11.5 mph - N/A   Clear
11:45 AM 51.8 °F - 37.4 °F 58% 30.45 in - NE 10.4 mph - N/A   Clear
12:00 PM - - - N/A% - 3.1 mi NNE 11.5 mph - N/A   Clear
12:15 PM 51.8 °F - 37.4 °F 58% 30.45 in - ENE 11.5 mph - N/A   Clear
12:45 PM 53.6 °F - 39.2 °F 58% 30.45 in - East 12.7 mph - N/A   Clear
1:00 PM 53 °F - 39 °F 48% 30.46 in 19 mi East 11.2 mph - -   Partly Cloudy
1:15 PM 53.6 °F - 39.2 °F 58% 30.45 in - ESE 9.2 mph - N/A   Clear
1:45 PM 51.8 °F - 41.0 °F 67% 30.45 in - East 9.2 mph - N/A   Clear
2:15 PM 53.6 °F - 39.2 °F 58% 30.45 in - East 8.1 mph - N/A   Clear
2:45 PM 51.8 °F - 39.2 °F 62% 30.45 in 6.2 mi East 5.8 mph - N/A   Mostly Cloudy
3:15 PM 51.8 °F - 39.2 °F 62% 30.45 in 6.2 mi ENE 5.8 mph - N/A   Mostly Cloudy
3:45 PM 51.8 °F - 41.0 °F 67% 30.45 in 6.2 mi ENE 5.8 mph - N/A   Mostly Cloudy
4:15 PM 50.0 °F - 39.2 °F 66% 30.45 in 6.2 mi ENE 4.6 mph - N/A   Mostly Cloudy
4:45 PM 50.0 °F - 41.0 °F 71% 30.45 in 6.2 mi ENE 3.5 mph - N/A   Mostly Cloudy
5:00 PM - - - N/A% - - North - - N/A   Unknown
7:00 PM 48 °F - 38 °F 60% 30.46 in - NNE 4.5 mph - -